Regional Weather Roundup
Issued by NWS

Home | Current Version | Previous Version | Text Only | Print | Product List | Glossary On
Versions: 1 2 3 4 5 6 7 8 9 10 11 12 13 14 15 16 17 18 19 20 21 22 23 24 25 26 27 28 29 30 31 32 33 34 35 36 37 38 39 40 41 42 43 44 45 46 47 48 49 50
000
ASUS43 KMPX 030510
RWRMN
WEATHER ROUNDUP FOR MINNESOTA
NATIONAL WEATHER SERVICE TWIN CITIES/CHANHASSEN MN
1200 AM CDT THU SEP 03 2015


NOTE: "FAIR" INDICATES FEW OR NO CLOUDS BELOW 12,000 FEET WITH NO
SIGNIFICANT WEATHER AND/OR OBSTRUCTIONS TO VISIBILITY. N/A MEANS
CURRENT SKY AND/OR WEATHER CONDITIONS ARE NOT AVAILABLE.

MNZ060>063-068>070-030600-
   Twin Cities Metro

CITY           SKY/WX    TMP DP  RH WIND       PRES   REMARKS
TWIN CITIES    MOCLDY    70  67  90 NE7       29.90F
ST PAUL        CLOUDY    70  67  90 E3        29.91S
CRYSTAL        CLOUDY    71  67  87 E5        29.90S
BLAINE         MOCLDY    70  70 100 E7        29.92S
LAKEVILLE      PTCLDY    64  64 100 CALM      29.90F FOG
EDEN PRAIRIE   PTCLDY    71  68  90 NE7       29.89S
SOUTH ST PAUL  PTCLDY    70  67  91 CALM      29.91S
LAKE ELMO      FAIR      68  66  94 NE3       29.93S
$$
MNZ001>005-007-008-013>017-022>024-027-028-030600-
   Northwest Minnesota

CITY           SKY/WX    TMP DP  RH WIND       PRES   REMARKS
BEMIDJI        CLEAR     67  64  93 SE9       29.92S
HALLOCK        CLEAR     72  66  83 SE9       29.80S
ROSEAU         CLEAR     70  64  83 SE7       29.86S
WARROAD        CLEAR     70  64  83 SE5       29.88R
THIEF RVR FALL CLEAR     70  66  88 SE8       29.86S
CROOKSTON      CLEAR     72  66  83 SE8       29.83F
FOSSTON        CLEAR     66  63  88 SE7       29.88S
DETROIT LAKES  CLEAR     70  66  88 SE9       29.90S
MOORHEAD       CLEAR     72  68  88 SE9       29.83S
PARK RAPIDS    CLOUDY    70  65  84 SE8       29.92S
MAHNOMEN       FAIR      69  66  90 SE9       29.87S
$$
MNZ006-009>011-018-025>026-030600-
   North Central Minnesota

CITY           SKY/WX    TMP DP  RH WIND       PRES   REMARKS
BAUDETTE       CLEAR     66  62  87 SE9       29.90R
FLAG ISLAND    CLEAR     73  64  73 SE12      29.87S
INTL FALLS     CLEAR     65  63  93 SE5       29.94R
WASKISH        CLEAR     64  63  94 CALM      29.92R
BIG FORK       CLEAR     66  64  94 SE3       29.95S
LONGVILLE      CLEAR     64  63  94 CALM      29.94S
GRAND RAPIDS     N/A     64  61  88 SE3       29.96S
CRANE LAKE     CLEAR     55  54  94 CALM      29.98S
ORR            CLEAR     63  61  94 CALM      29.94S
COOK           CLEAR     63  61  94 CALM      29.97S
WALKER         FAIR      66  64  92 SE5       29.93S
$$
MNZ012-019>021-037-030600-
   Northeast Minnesota

CITY           SKY/WX    TMP DP  RH WIND       PRES   REMARKS
DULUTH         CLOUDY    63  61  93 E8        29.98S
ELY            CLEAR     59  57  94 CALM      29.99S FOG
HIBBING        CLEAR     61  60  97 SE6       29.97R
EVELETH        FOG       59  59 100 CALM      29.99R VSB 1/4
DULUTH HARBOR  CLOUDY    61  57  88 E6        29.97S
TWO HARBORS    HAZE      64  61  88 NE5       29.97S VSB 1/2
SILVER BAY     CLOUDY    63  61  94 CALM      29.97F FOG
GRAND MARAIS     N/A     59  56  89 CALM      29.98S
G MARAIS ARPRT CLEAR     55  52  88 NE3       30.02F
$$
MNZ029>031-032-039>041-046>048-054>057-064-030600-
   West Central Minnesota

CITY           SKY/WX    TMP DP  RH WIND       PRES   REMARKS
FERGUS FALLS   CLEAR     72  68  88 E9        29.85S
WHEATON        CLEAR     70  66  88 E10       29.85S FOG
MORRIS         CLEAR     72  70  94 SE7       29.85F FOG
ALEXANDRIA     CLOUDY    70  69  97 E13       29.91S FOG
ELBOW LAKE     FAIR      70  69  95 E13       29.86S
WADENA         CLOUDY    66  66 100 E7        29.90F
GLENWOOD       CLOUDY    70  68  94 E12       29.90S FOG
APPLETON       PTCLDY    73  70  88 SE9       29.85S FOG
BENSON         CLEAR     72  66  83 SE7       29.87S FOG
ORTONVILLE     CLEAR     73  70  88 SE9       29.84S
MADISON        CLEAR     73  72  94 E7        29.84F FOG
WILLMAR        FAIR      72  70  94 E9        29.89F FOG
$$
MNZ033>034-036-042>043-049>051-058-059-030600-
   Central Minnesota

CITY           SKY/WX    TMP DP  RH WIND       PRES   REMARKS
ST CLOUD       MOCLDY    68  66  93 E6        29.92S
SAUK CENTRE    CLOUDY    69  67  94 E8        29.92R
PAYNESVILLE    CLOUDY    69  68  96 NE8       29.91S
AITKIN         CLEAR     64  57  77 CALM      29.94S
PINE RIVER     CLEAR     63  63 100 CALM      29.97S
BRAINERD       CLEAR     67  65  93 CALM      29.93F
STAPLES        CLOUDY    70  66  88 SE8       29.92S
LONG PRAIRIE   CLOUDY    68  66  94 E8G16     29.93R
LITTLE FALLS   CLEAR     66  64  94 CALM      29.93R
LITCHFIELD     MOCLDY    70  70 100 E6        29.91S
BUFFALO        PTCLDY    68  65  90 NE6       29.92S
MAPLE LAKE     CLEAR     68  67  96 E7        29.92S
$$
MNZ037-044-045-052-053-030600-
   East Central Minnesota

CITY           SKY/WX    TMP DP  RH WIND       PRES   REMARKS
PRINCETON      MOCLDY    70  66  88 E5        29.92F
MORA           PTCLDY    64  63  94 CALM      29.95F
CAMBRIDGE      PTCLDY    70  61  73 CALM      29.91S
RUSH CITY      PTCLDY    68  65  93 CALM      29.94R
MOOSE LAKE     FOG       63  61  94 NE3       29.95S VSB 1
HINCKLEY       MOCLDY    66  66 100 NE3       29.95S
CLOQUET        CLOUDY    63  61  94 E5        29.97S
MCGREGOR       CLOUDY    64  63  94 SE3       29.96S
$$
MNZ071>073-080-081-089-090-097-098-030600-
   Southwest Minnesota

CITY           SKY/WX    TMP DP  RH WIND       PRES   REMARKS
MONTEVIDEO     CLEAR     72  72 100 SE8       29.88R FOG
GRANITE FALLS  CLEAR     72  71  97 E6        29.87S FOG
CANBY          CLEAR     72  70  94 SE3       29.85F FOG
MARSHALL       CLEAR     72  66  83 SE7       29.87S
REDWOOD FALLS  CLEAR     73  71  93 E8        29.86S FOG
OLIVIA         CLEAR     68  64  88 E7        29.87S FOG
PIPESTONE      CLEAR     72  70  94 SE5       29.88S
WINDOM         CLEAR     72  70  94 CALM      29.89S
WORTHINGTON    CLEAR     72  66  83 S7        29.89S
JACKSON        CLEAR     72  70  94 S7        29.90S
TRACY          CLEAR     73  71  94 S5        29.87S
SLAYTON        FAIR      69  69 100 CALM      29.89F FOG
$$
MNZ065>067-074>077-082>085-091>093-030600-
   South Central Minnesota

CITY           SKY/WX    TMP DP  RH WIND       PRES   REMARKS
MANKATO        CLEAR     73  72  94 S8        29.89S
NEW ULM        CLEAR     72  72 100 SE3       29.88S FOG
ST JAMES       CLEAR     72  72 100 SE3       29.89S
FAIRMONT       CLEAR     72  64  78 S7        29.89R
GLENCOE        CLEAR     70  70  99 E5        29.89S FOG
FARIBAULT      FOG       70  68  94 CALM      29.90F VSB 1/4
OWATONNA       PTCLDY    72  70  94 SE8       29.90F
WASECA         CLEAR     70  68  94 SE3       29.91S
ALBERT LEA     CLEAR     73  70  88 S3        29.91S
$$
MNZ078>079-086>088-094>096-030600-
   Southeast Minnesota

CITY           SKY/WX    TMP DP  RH WIND       PRES   REMARKS
ROCHESTER      PTCLDY    70  68  93 S6        29.93R
RED WING       PTCLDY    70  68  94 E5        29.90S
STANTON        PTCLDY    70  67  92 CALM      29.89S FOG
DODGE CENTER   PTCLDY    70  68  94 S3        29.92S
WINONA         CLEAR     73  70  88 CALM      29.91S
AUSTIN         CLEAR     72  70  94 CALM      29.92S
PRESTON        CLEAR     71  68  89 S6        29.94R
$$
ABBREVIATIONS USED IN REMARKS
   TC - TEMPERATURES IN CELSIUS
  WCI - WIND CHILL INDEX
   HX - HEAT INDEX
  VSB - VISIBILITY
$$



USA.gov is the U.S. government's official web portal to all federal, state and local government web resources and services.